"Time","Value","Approval","myLocation"
"2023-05-07 00:00",1.68735017713966,"Working","OW196"
"2023-05-07 01:00",1.68034943128846,"Working","OW196"
"2023-05-07 02:00",1.67534868543726,"Working","OW196"
"2023-05-07 03:00",1.67134793958605,"Working","OW196"
"2023-05-07 04:00",1.67034719373485,"Working","OW196"
"2023-05-07 05:00",1.67134644788365,"Working","OW196"
"2023-05-07 06:00",1.67334570203244,"Working","OW196"
"2023-05-07 07:00",1.67634495618124,"Working","OW196"
"2023-05-07 08:00",1.67834421033004,"Working","OW196"
"2023-05-07 09:00",1.67934346447884,"Working","OW196"
"2023-05-07 10:00",1.67934271862763,"Working","OW196"
"2023-05-07 11:00",1.67834197277643,"Working","OW196"
"2023-05-07 12:00",1.67534122692523,"Working","OW196"
"2023-05-07 13:00",1.67334048107403,"Working","OW196"
"2023-05-07 14:00",1.67233973522282,"Working","OW196"
"2023-05-07 15:00",1.67433898937162,"Working","OW196"
"2023-05-07 16:00",1.67733824352042,"Working","OW196"
"2023-05-07 17:00",1.68333749766922,"Working","OW196"
"2023-05-07 18:00",1.68933675181801,"Working","OW196"
"2023-05-07 19:00",1.69633600596681,"Working","OW196"
"2023-05-07 20:00",1.70133526011561,"Working","OW196"
"2023-05-07 21:00",1.7053345142644,"Working","OW196"
"2023-05-07 22:00",1.7063337684132,"Working","OW196"
"2023-05-07 23:00",1.704333022562,"Working","OW196"
"2023-05-08 00:00",1.7003322767108,"Working","OW196"
"2023-05-08 01:00",1.69633153085959,"Working","OW196"
"2023-05-08 02:00",1.69733078500839,"Working","OW196"
"2023-05-08 03:00",1.69833003915719,"Working","OW196"
"2023-05-08 04:00",1.70032929330599,"Working","OW196"
"2023-05-08 05:00",1.70232854745478,"Working","OW196"
"2023-05-08 06:00",1.70532780160358,"Working","OW196"
"2023-05-08 07:00",1.70832705575238,"Working","OW196"
"2023-05-08 08:00",1.71132630990117,"Working","OW196"
"2023-05-08 09:00",1.71332556404997,"Working","OW196"
"2023-05-08 10:00",1.71432481819877,"Working","OW196"
"2023-05-08 11:00",1.71432407234757,"Working","OW196"
"2023-05-08 12:00",1.71332332649636,"Working","OW196"
"2023-05-08 13:00",1.71132258064516,"Working","OW196"
"2023-05-08 14:00",1.70932183479396,"Working","OW196"
"2023-05-08 15:00",1.71032108894276,"Working","OW196"
"2023-05-08 16:00",1.71232034309155,"Working","OW196"
"2023-05-08 17:00",1.71631959724035,"Working","OW196"
"2023-05-08 18:00",1.72231885138915,"Working","OW196"
"2023-05-08 19:00",1.72931810553795,"Working","OW196"
"2023-05-08 20:00",1.73531735968674,"Working","OW196"
"2023-05-08 21:00",1.74031661383554,"Working","OW196"
"2023-05-08 22:00",1.74231586798434,"Working","OW196"
"2023-05-08 23:00",1.74331512213313,"Working","OW196"
"2023-05-09 00:00",1.74131437628193,"Working","OW196"
"2023-05-09 01:00",1.73831363043073,"Working","OW196"
"2023-05-09 02:00",1.73331288457953,"Working","OW196"
"2023-05-09 03:00",1.72931213872832,"Working","OW196"
"2023-05-09 04:00",1.72631139287712,"Working","OW196"
"2023-05-09 05:00",1.72531064702592,"Working","OW196"
"2023-05-09 06:00",1.72730990117472,"Working","OW196"
"2023-05-09 07:00",1.73030915532351,"Working","OW196"
"2023-05-09 08:00",1.73330840947231,"Working","OW196"
"2023-05-09 09:00",1.73730766362111,"Working","OW196"
"2023-05-09 10:00",1.7403069177699,"Working","OW196"
"2023-05-09 11:00",1.7423061719187,"Working","OW196"
"2023-05-09 12:00",1.7423054260675,"Working","OW196"
"2023-05-09 13:00",1.7423046802163,"Working","OW196"
"2023-05-09 14:00",1.74230393436509,"Working","OW196"
"2023-05-09 15:00",1.74330318851389,"Working","OW196"
"2023-05-09 16:00",1.74530244266269,"Working","OW196"
"2023-05-09 17:00",1.74830169681149,"Working","OW196"
"2023-05-09 18:00",1.75330095096028,"Working","OW196"
"2023-05-09 19:00",1.76030020510908,"Working","OW196"
"2023-05-09 20:00",1.76629945925788,"Working","OW196"
"2023-05-09 21:00",1.77229871340668,"Working","OW196"
"2023-05-09 22:00",1.77729796755547,"Working","OW196"
"2023-05-09 23:00",1.77929722170427,"Working","OW196"
"2023-05-10 00:00",1.77829647585307,"Working","OW196"
"2023-05-10 01:00",1.77729573000186,"Working","OW196"
"2023-05-10 02:00",1.77329498415066,"Working","OW196"
"2023-05-10 03:00",1.77029423829946,"Working","OW196"
"2023-05-10 04:00",1.76729349244826,"Working","OW196"
"2023-05-10 05:00",1.76429274659705,"Working","OW196"
"2023-05-10 06:00",1.76329200074585,"Working","OW196"
"2023-05-10 07:00",1.76429125489465,"Working","OW196"
"2023-05-10 08:00",1.76529050904345,"Working","OW196"
"2023-05-10 09:00",1.76728976319224,"Working","OW196"
"2023-05-10 10:00",1.77028901734104,"Working","OW196"
"2023-05-10 11:00",1.77228827148984,"Working","OW196"
"2023-05-10 12:00",1.77428752563864,"Working","OW196"
"2023-05-10 13:00",1.77428677978743,"Working","OW196"
"2023-05-10 14:00",1.77428603393623,"Working","OW196"
"2023-05-10 15:00",1.77528528808503,"Working","OW196"
"2023-05-10 16:00",1.77628454223382,"Working","OW196"
"2023-05-10 17:00",1.77828379638262,"Working","OW196"
"2023-05-10 18:00",1.78228305053142,"Working","OW196"
"2023-05-10 19:00",1.78728230468022,"Working","OW196"
"2023-05-10 20:00",1.79328155882901,"Working","OW196"
"2023-05-10 21:00",1.79828081297781,"Working","OW196"
"2023-05-10 22:00",1.80428006712661,"Working","OW196"
"2023-05-10 23:00",1.80827932127541,"Working","OW196"
"2023-05-11 00:00",1.8102785754242,"Working","OW196"
"2023-05-11 01:00",1.810277829573,"Working","OW196"
"2023-05-11 02:00",1.8092770837218,"Working","OW196"
"2023-05-11 03:00",1.80627633787059,"Working","OW196"
"2023-05-11 04:00",1.80327559201939,"Working","OW196"
"2023-05-11 05:00",1.80127484616819,"Working","OW196"
"2023-05-11 06:00",1.79927410031699,"Working","OW196"
"2023-05-11 07:00",1.80027335446578,"Working","OW196"
"2023-05-11 08:00",1.80127260861458,"Working","OW196"
"2023-05-11 09:00",1.80427186276338,"Working","OW196"
"2023-05-11 10:00",1.80727111691218,"Working","OW196"
"2023-05-11 11:00",1.81027037106097,"Working","OW196"
"2023-05-11 12:00",1.81326962520977,"Working","OW196"
"2023-05-11 13:00",1.81526887935857,"Working","OW196"
"2023-05-11 14:00",1.81726813350737,"Working","OW196"
"2023-05-11 15:00",1.81926738765616,"Working","OW196"
"2023-05-11 16:00",1.82126664180496,"Working","OW196"
"2023-05-11 17:00",1.82326589595376,"Working","OW196"
"2023-05-11 18:00",1.82626515010255,"Working","OW196"
"2023-05-11 19:00",1.83026440425135,"Working","OW196"
"2023-05-11 20:00",1.83526365840015,"Working","OW196"
"2023-05-11 21:00",1.84026291254895,"Working","OW196"
"2023-05-11 22:00",1.84526216669774,"Working","OW196"
"2023-05-11 23:00",1.85026142084654,"Working","OW196"
"2023-05-12 00:00",1.85426067499534,"Working","OW196"
"2023-05-12 01:00",1.85625992914414,"Working","OW196"
"2023-05-12 02:00",1.85725918329293,"Working","OW196"
"2023-05-12 03:00",1.85925843744173,"Working","OW196"
"2023-05-12 04:00",1.86025769159053,"Working","OW196"
"2023-05-12 05:00",1.86325694573933,"Working","OW196"
"2023-05-12 06:00",1.86725619988812,"Working","OW196"
"2023-05-12 07:00",1.87025545403692,"Working","OW196"
"2023-05-12 08:00",1.87325470818572,"Working","OW196"
"2023-05-12 09:00",1.87625396233451,"Working","OW196"
"2023-05-12 10:00",1.88025321648331,"Working","OW196"
"2023-05-12 11:00",1.88425247063211,"Working","OW196"
"2023-05-12 12:00",1.88825172478091,"Working","OW196"
"2023-05-12 13:00",1.8912509789297,"Working","OW196"
"2023-05-12 14:00",1.8942502330785,"Working","OW196"
"2023-05-12 15:00",1.8972494872273,"Working","OW196"
"2023-05-12 16:00",1.8992487413761,"Working","OW196"
"2023-05-12 17:00",1.90024799552489,"Working","OW196"
"2023-05-12 18:00",1.90124724967369,"Working","OW196"
"2023-05-12 19:00",1.90324650382249,"Working","OW196"
"2023-05-12 20:00",1.90624575797128,"Working","OW196"
"2023-05-12 21:00",1.90924501212008,"Working","OW196"
"2023-05-12 22:00",1.91424426626888,"Working","OW196"
"2023-05-12 23:00",1.91824352041768,"Working","OW196"
"2023-05-13 00:00",1.92224277456647,"Working","OW196"
"2023-05-13 01:00",1.92624202871527,"Working","OW196"
"2023-05-13 02:00",1.92824128286407,"Working","OW196"
"2023-05-13 03:00",1.92924053701287,"Working","OW196"
"2023-05-13 04:00",1.92923979116166,"Working","OW196"
"2023-05-13 05:00",1.92823904531046,"Working","OW196"
"2023-05-13 06:00",1.92623829945926,"Working","OW196"
"2023-05-13 07:00",1.92423755360806,"Working","OW196"
"2023-05-13 08:00",1.92323680775685,"Working","OW196"
"2023-05-13 09:00",1.92323606190565,"Working","OW196"
"2023-05-13 10:00",1.92323531605445,"Working","OW196"
"2023-05-13 11:00",1.92623457020324,"Working","OW196"
"2023-05-13 12:00",1.92923382435204,"Working","OW196"
"2023-05-13 13:00",1.93223307850084,"Working","OW196"
"2023-05-13 14:00",1.93623233264964,"Working","OW196"
"2023-05-13 15:00",1.93923158679843,"Working","OW196"
"2023-05-13 16:00",1.94223084094723,"Working","OW196"
"2023-05-13 17:00",1.94423009509603,"Working","OW196"
"2023-05-13 18:00",1.94522934924483,"Working","OW196"
"2023-05-13 19:00",1.94522860339362,"Working","OW196"
"2023-05-13 20:00",1.94622785754242,"Working","OW196"
"2023-05-13 21:00",1.94722711169122,"Working","OW196"
"2023-05-13 22:00",1.94922636584002,"Working","OW196"
"2023-05-13 23:00",1.95222561998881,"Working","OW196"
"2023-05-14 00:00",1.95622487413761,"Working","OW196"
"2023-05-14 01:00",1.96022412828641,"Working","OW196"
"2023-05-14 02:00",1.9642233824352,"Working","OW196"
"2023-05-14 03:00",1.968222636584,"Working","OW196"
"2023-05-14 04:00",1.9732218907328,"Working","OW196"
"2023-05-14 05:00",1.9792211448816,"Working","OW196"
"2023-05-14 06:00",1.98322039903039,"Working","OW196"
"2023-05-14 07:00",1.98621965317919,"Working","OW196"
"2023-05-14 08:00",1.98821890732799,"Working","OW196"
"2023-05-14 09:00",1.99021816147679,"Working","OW196"
"2023-05-14 10:00",1.99221741562558,"Working","OW196"
"2023-05-14 11:00",1.99421666977438,"Working","OW196"
"2023-05-14 12:00",1.99721592392318,"Working","OW196"
"2023-05-14 13:00",2.00121517807197,"Working","OW196"
"2023-05-14 14:00",2.00521443222077,"Working","OW196"
"2023-05-14 15:00",2.01021368636957,"Working","OW196"
"2023-05-14 16:00",2.01321294051837,"Working","OW196"
"2023-05-14 17:00",2.01621219466716,"Working","OW196"
"2023-05-14 18:00",2.01721144881596,"Working","OW196"
"2023-05-14 19:00",2.01721070296476,"Working","OW196"
"2023-05-14 20:00",2.01720995711356,"Working","OW196"
"2023-05-14 21:00",2.01720921126235,"Working","OW196"
"2023-05-14 22:00",2.01720846541115,"Working","OW196"
"2023-05-14 23:00",2.01820771955995,"Working","OW196"
"2023-05-15 00:00",2.02020697370874,"Working","OW196"
"2023-05-15 01:00",2.02420622785754,"Working","OW196"
"2023-05-15 02:00",2.02720548200634,"Working","OW196"
"2023-05-15 03:00",2.03120473615514,"Working","OW196"
"2023-05-15 04:00",2.03520399030393,"Working","OW196"
"2023-05-15 05:00",2.04020324445273,"Working","OW196"
"2023-05-15 06:00",2.04620249860153,"Working","OW196"
"2023-05-15 07:00",2.05020175275033,"Working","OW196"
"2023-05-15 08:00",2.05320100689912,"Working","OW196"
"2023-05-15 09:00",2.05420026104792,"Working","OW196"
"2023-05-15 10:00",2.05419951519672,"Working","OW196"
"2023-05-15 11:00",2.05519876934552,"Working","OW196"
"2023-05-15 12:00",2.05719802349431,"Working","OW196"
"2023-05-15 13:00",2.06119727764311,"Working","OW196"
"2023-05-15 14:00",2.06619653179191,"Working","OW196"
"2023-05-15 15:00",2.0711957859407,"Working","OW196"
"2023-05-15 16:00",2.0761950400895,"Working","OW196"
"2023-05-15 17:00",2.0831942942383,"Working","OW196"
"2023-05-15 18:00",2.0891935483871,"Working","OW196"
"2023-05-15 19:00",2.09619280253589,"Working","OW196"
"2023-05-15 20:00",2.10219205668469,"Working","OW196"
"2023-05-15 21:00",2.10819131083349,"Working","OW196"
"2023-05-15 22:00",2.11519056498229,"Working","OW196"
"2023-05-15 23:00",2.12218981913108,"Working","OW196"
"2023-05-16 00:00",2.13118907327988,"Working","OW196"
"2023-05-16 01:00",2.14118832742868,"Working","OW196"
"2023-05-16 02:00",2.15218758157748,"Working","OW196"
"2023-05-16 03:00",2.16418683572627,"Working","OW196"
"2023-05-16 04:00",2.17618608987507,"Working","OW196"
"2023-05-16 05:00",2.18818534402387,"Working","OW196"
"2023-05-16 06:00",2.19918459817266,"Working","OW196"
"2023-05-16 07:00",2.20718385232146,"Working","OW196"
"2023-05-16 08:00",2.21418310647026,"Working","OW196"
"2023-05-16 09:00",2.21718236061906,"Working","OW196"
"2023-05-16 10:00",2.21918161476785,"Working","OW196"
"2023-05-16 11:00",2.22118086891665,"Working","OW196"
"2023-05-16 12:00",2.22318012306545,"Working","OW196"
"2023-05-16 13:00",2.22517937721425,"Working","OW196"
"2023-05-16 14:00",2.23017863136304,"Working","OW196"
"2023-05-16 15:00",2.23417788551184,"Working","OW196"
"2023-05-16 16:00",2.23917713966064,"Working","OW196"
"2023-05-16 17:00",2.24317639380944,"Working","OW196"
"2023-05-16 18:00",2.24517564795823,"Working","OW196"
"2023-05-16 19:00",2.24517490210703,"Working","OW196"
"2023-05-16 20:00",2.24417415625583,"Working","OW196"
"2023-05-16 21:00",2.24017341040462,"Working","OW196"
"2023-05-16 22:00",2.23617266455342,"Working","OW196"
"2023-05-16 23:00",2.23117191870222,"Working","OW196"
"2023-05-17 00:00",2.22817117285102,"Working","OW196"
"2023-05-17 01:00",2.22617042699981,"Working","OW196"
"2023-05-17 02:00",2.22616968114861,"Working","OW196"
"2023-05-17 03:00",2.23016893529741,"Working","OW196"
"2023-05-17 04:00",2.23616818944621,"Working","OW196"
"2023-05-17 05:00",2.243167443595,"Working","OW196"
"2023-05-17 06:00",2.2501666977438,"Working","OW196"
"2023-05-17 07:00",2.2551659518926,"Working","OW196"
"2023-05-17 08:00",2.25616520604139,"Working","OW196"
"2023-05-17 09:00",2.25516446019019,"Working","OW196"
"2023-05-17 10:00",2.25316371433899,"Working","OW196"
"2023-05-17 11:00",2.25216296848779,"Working","OW196"
"2023-05-17 12:00",2.25016222263658,"Working","OW196"
"2023-05-17 13:00",2.25116147678538,"Working","OW196"
"2023-05-17 14:00",2.25416073093418,"Working","OW196"
"2023-05-17 15:00",2.25815998508298,"Working","OW196"
"2023-05-17 16:00",2.26215923923177,"Working","OW196"
"2023-05-17 17:00",2.26615849338057,"Working","OW196"
"2023-05-17 18:00",2.26915774752937,"Working","OW196"
"2023-05-17 19:00",2.27115700167817,"Working","OW196"
"2023-05-17 20:00",2.27015625582696,"Working","OW196"
"2023-05-17 21:00",2.26615550997576,"Working","OW196"
"2023-05-17 22:00",2.26015476412456,"Working","OW196"
"2023-05-17 23:00",2.25415401827335,"Working","OW196"
"2023-05-18 00:00",2.24915327242215,"Working","OW196"
"2023-05-18 01:00",2.24415252657095,"Working","OW196"
"2023-05-18 02:00",2.24215178071975,"Working","OW196"
"2023-05-18 03:00",2.24215103486854,"Working","OW196"
"2023-05-18 04:00",2.24415028901734,"Working","OW196"
"2023-05-18 05:00",2.24714954316614,"Working","OW196"
"2023-05-18 06:00",2.25014879731494,"Working","OW196"
"2023-05-18 07:00",2.25114805146373,"Working","OW196"
"2023-05-18 08:00",2.25114730561253,"Working","OW196"
"2023-05-18 09:00",2.24914655976133,"Working","OW196"
"2023-05-18 10:00",2.24614581391013,"Working","OW196"
"2023-05-18 11:00",2.24314506805892,"Working","OW196"
"2023-05-18 12:00",2.24114432220772,"Working","OW196"
"2023-05-18 13:00",2.24114357635652,"Working","OW196"
"2023-05-18 14:00",2.24314283050531,"Working","OW196"
"2023-05-18 15:00",2.24714208465411,"Working","OW196"
"2023-05-18 16:00",2.25414133880291,"Working","OW196"
"2023-05-18 17:00",2.26014059295171,"Working","OW196"
"2023-05-18 18:00",2.2651398471005,"Working","OW196"
"2023-05-18 19:00",2.2691391012493,"Working","OW196"
"2023-05-18 20:00",2.2701383553981,"Working","OW196"
"2023-05-18 21:00",2.2691376095469,"Working","OW196"
"2023-05-18 22:00",2.26513686369569,"Working","OW196"
"2023-05-18 23:00",2.26013611784449,"Working","OW196"
"2023-05-19 00:00",2.25513537199329,"Working","OW196"
"2023-05-19 01:00",2.25013462614208,"Working","OW196"
"2023-05-19 02:00",2.24813388029088,"Working","OW196"
"2023-05-19 03:00",2.25013313443968,"Working","OW196"
"2023-05-19 04:00",2.25513238858848,"Working","OW196"
"2023-05-19 05:00",2.26513164273727,"Working","OW196"
"2023-05-19 06:00",2.27613089688607,"Working","OW196"
"2023-05-19 07:00",2.28613015103487,"Working","OW196"
"2023-05-19 08:00",2.29312940518367,"Working","OW196"
"2023-05-19 09:00",2.29612865933246,"Working","OW196"
"2023-05-19 10:00",2.29712791348126,"Working","OW196"
"2023-05-19 11:00",2.29712716763006,"Working","OW196"
"2023-05-19 12:00",2.29612642177886,"Working","OW196"
"2023-05-19 13:00",2.29712567592765,"Working","OW196"
"2023-05-19 14:00",2.30012493007645,"Working","OW196"
"2023-05-19 15:00",2.30412418422525,"Working","OW196"
"2023-05-19 16:00",2.31012343837404,"Working","OW196"
"2023-05-19 17:00",2.31712269252284,"Working","OW196"
"2023-05-19 18:00",2.32312194667164,"Working","OW196"
"2023-05-19 19:00",2.32812120082044,"Working","OW196"
"2023-05-19 20:00",2.33012045496923,"Working","OW196"
"2023-05-19 21:00",2.33011970911803,"Working","OW196"
"2023-05-19 22:00",2.32711896326683,"Working","OW196"
"2023-05-19 23:00",2.32211821741563,"Working","OW196"
"2023-05-20 00:00",2.31611747156442,"Working","OW196"
"2023-05-20 01:00",2.30911672571322,"Working","OW196"
"2023-05-20 02:00",2.30511597986202,"Working","OW196"
"2023-05-20 03:00",2.30311523401082,"Working","OW196"
"2023-05-20 04:00",2.30411448815961,"Working","OW196"
"2023-05-20 05:00",2.30711374230841,"Working","OW196"
"2023-05-20 06:00",2.31111299645721,"Working","OW196"
"2023-05-20 07:00",2.315112250606,"Working","OW196"
"2023-05-20 08:00",2.3181115047548,"Working","OW196"
"2023-05-20 09:00",2.3191107589036,"Working","OW196"
"2023-05-20 10:00",2.3181100130524,"Working","OW196"
"2023-05-20 11:00",2.31610926720119,"Working","OW196"
"2023-05-20 12:00",2.31410852134999,"Working","OW196"
"2023-05-20 13:00",2.31310777549879,"Working","OW196"
"2023-05-20 14:00",2.31310702964759,"Working","OW196"
"2023-05-20 15:00",2.31610628379638,"Working","OW196"
"2023-05-20 16:00",2.32010553794518,"Working","OW196"
"2023-05-20 17:00",2.32710479209398,"Working","OW196"
"2023-05-20 18:00",2.33410404624277,"Working","OW196"
"2023-05-20 19:00",2.34010330039157,"Working","OW196"
"2023-05-20 20:00",2.34410255454037,"Working","OW196"
"2023-05-20 21:00",2.34510180868917,"Working","OW196"
"2023-05-20 22:00",2.34410106283796,"Working","OW196"
"2023-05-20 23:00",2.33910031698676,"Working","OW196"
"2023-05-21 00:00",2.33309957113556,"Working","OW196"
"2023-05-21 01:00",2.32709882528436,"Working","OW196"
"2023-05-21 02:00",2.32109807943315,"Working","OW196"
"2023-05-21 03:00",2.31709733358195,"Working","OW196"
"2023-05-21 04:00",2.31509658773075,"Working","OW196"
"2023-05-21 05:00",2.31809584187954,"Working","OW196"
"2023-05-21 06:00",2.32609509602834,"Working","OW196"
"2023-05-21 07:00",2.33709435017714,"Working","OW196"
"2023-05-21 08:00",2.34909360432594,"Working","OW196"
"2023-05-21 09:00",2.36009285847473,"Working","OW196"
"2023-05-21 10:00",2.37109211262353,"Working","OW196"
"2023-05-21 11:00",2.38109136677233,"Working","OW196"
"2023-05-21 12:00",2.39009062092113,"Working","OW196"
"2023-05-21 13:00",2.40008987506992,"Working","OW196"
"2023-05-21 14:00",2.41108912921872,"Working","OW196"
"2023-05-21 15:00",2.42208838336752,"Working","OW196"
"2023-05-21 16:00",2.43308763751632,"Working","OW196"
"2023-05-21 17:00",2.44408689166511,"Working","OW196"
"2023-05-21 18:00",2.45308614581391,"Working","OW196"
"2023-05-21 19:00",2.46108539996271,"Working","OW196"
"2023-05-21 20:00",2.4660846541115,"Working","OW196"
"2023-05-21 21:00",2.4700839082603,"Working","OW196"
"2023-05-21 22:00",2.4710831624091,"Working","OW196"
"2023-05-21 23:00",2.4700824165579,"Working","OW196"
"2023-05-22 00:00",2.46708167070669,"Working","OW196"
"2023-05-22 01:00",2.46308092485549,"Working","OW196"
"2023-05-22 02:00",2.46108017900429,"Working","OW196"
"2023-05-22 03:00",2.46007943315309,"Working","OW196"
"2023-05-22 04:00",2.46107868730188,"Working","OW196"
"2023-05-22 05:00",2.46507794145068,"Working","OW196"
"2023-05-22 06:00",2.46807719559948,"Working","OW196"
"2023-05-22 07:00",2.47207644974828,"Working","OW196"
"2023-05-22 08:00",2.47507570389707,"Working","OW196"
"2023-05-22 09:00",2.47707495804587,"Working","OW196"
"2023-05-22 10:00",2.47707421219467,"Working","OW196"
"2023-05-22 11:00",2.47707346634346,"Working","OW196"
"2023-05-22 12:00",2.47507272049226,"Working","OW196"
"2023-05-22 13:00",2.47207197464106,"Working","OW196"
"2023-05-22 14:00",2.47007122878986,"Working","OW196"
"2023-05-22 15:00",2.46907048293865,"Working","OW196"
"2023-05-22 16:00",2.47006973708745,"Working","OW196"
"2023-05-22 17:00",2.47306899123625,"Working","OW196"
"2023-05-22 18:00",2.47706824538505,"Working","OW196"
"2023-05-22 19:00",2.48306749953384,"Working","OW196"
"2023-05-22 20:00",2.48806675368264,"Working","OW196"
"2023-05-22 21:00",2.49206600783144,"Working","OW196"
"2023-05-22 22:00",2.49306526198023,"Working","OW196"
"2023-05-22 23:00",2.49306451612903,"Working","OW196"
"2023-05-23 00:00",2.49106377027783,"Working","OW196"
"2023-05-23 01:00",2.49006302442663,"Working","OW196"
"2023-05-23 02:00",2.49006227857542,"Working","OW196"
"2023-05-23 03:00",2.49206153272422,"Working","OW196"
"2023-05-23 04:00",2.49606078687302,"Working","OW196"
"2023-05-23 05:00",2.50206004102182,"Working","OW196"
"2023-05-23 06:00",2.51105929517061,"Working","OW196"
"2023-05-23 07:00",2.52105854931941,"Working","OW196"
"2023-05-23 08:00",2.53005780346821,"Working","OW196"
"2023-05-23 09:00",2.53705705761701,"Working","OW196"
"2023-05-23 10:00",2.5410563117658,"Working","OW196"
"2023-05-23 11:00",2.5440555659146,"Working","OW196"
"2023-05-23 12:00",2.5440548200634,"Working","OW196"
"2023-05-23 13:00",2.54305407421219,"Working","OW196"
"2023-05-23 14:00",2.54205332836099,"Working","OW196"
"2023-05-23 15:00",2.54105258250979,"Working","OW196"
"2023-05-23 16:00",2.54105183665859,"Working","OW196"
"2023-05-23 17:00",2.54405109080738,"Working","OW196"
"2023-05-23 18:00",2.54705034495618,"Working","OW196"
"2023-05-23 19:00",2.55104959910498,"Working","OW196"
"2023-05-23 20:00",2.55504885325378,"Working","OW196"
"2023-05-23 21:00",2.55804810740257,"Working","OW196"
"2023-05-23 22:00",2.55904736155137,"Working","OW196"
"2023-05-23 23:00",2.55804661570017,"Working","OW196"
"2023-05-24 00:00",2.55504586984897,"Working","OW196"
"2023-05-24 01:00",2.55004512399776,"Working","OW196"
"2023-05-24 02:00",2.54404437814656,"Working","OW196"
"2023-05-24 03:00",2.53804363229536,"Working","OW196"
"2023-05-24 04:00",2.53204288644415,"Working","OW196"
"2023-05-24 05:00",2.52804214059295,"Working","OW196"
"2023-05-24 06:00",2.52504139474175,"Working","OW196"
"2023-05-24 07:00",2.52404064889055,"Working","OW196"
"2023-05-24 08:00",2.52303990303934,"Working","OW196"
"2023-05-24 09:00",2.52403915718814,"Working","OW196"
"2023-05-24 10:00",2.52403841133694,"Working","OW196"
"2023-05-24 11:00",2.52303766548574,"Working","OW196"
"2023-05-24 12:00",2.52203691963453,"Working","OW196"
"2023-05-24 13:00",2.52103617378333,"Working","OW196"
"2023-05-24 14:00",2.51903542793213,"Working","OW196"
"2023-05-24 15:00",2.51803468208092,"Working","OW196"
"2023-05-24 16:00",2.51603393622972,"Working","OW196"
"2023-05-24 17:00",2.51603319037852,"Working","OW196"
"2023-05-24 18:00",2.51803244452732,"Working","OW196"
"2023-05-24 19:00",2.52103169867611,"Working","OW196"
"2023-05-24 20:00",2.52403095282491,"Working","OW196"
"2023-05-24 21:00",2.52803020697371,"Working","OW196"
"2023-05-24 22:00",2.53102946112251,"Working","OW196"
"2023-05-24 23:00",2.5330287152713,"Working","OW196"
"2023-05-25 00:00",2.5320279694201,"Working","OW196"
"2023-05-25 01:00",2.5290272235689,"Working","OW196"
"2023-05-25 02:00",2.5260264777177,"Working","OW196"
"2023-05-25 03:00",2.52302573186649,"Working","OW196"